Weather History for Jackson, KY

Change the Weather History Date:

Tuesday, June 19, 2012

  Actual Average Record
Temperature  
Mean Temperature 77 °F 73 °F  
Max Temperature 87 °F 83 °F 93 °F (1994)
Min Temperature 66 °F 64 °F 55 °F (1985)
Degree Days  
Heating Degree Days 0 0  
Month to date heating degree days 12 9  
Since 1 June heating degree days 12 9  
Since 1 July heating degree days 3339 4231  
Cooling Degree Days 12 8  
Month to date cooling degree days 108 122  
Year to date cooling degree days 359 258  
Since 1 June cooling degree days 108 122  
Growing Degree Days 26 (Base 50)    
Moisture  
Dew Point 61 °F    
Average Humidity 61    
Maximum Humidity 78    
Minimum Humidity 43    
Precipitation  
Precipitation 0.00 in 0.15 in 1.66 in (1991)
Month to date precipitation 1.29 3.08  
Year to date precipitation 20.99 23.59  
Snow  
Snow 0.00 in 0.00 in - ()
Month to date snowfall 0.0 0.0  
Since 1 June snowfall 0.0 0.0  
Since 1 July snowfall 14.2 23.5  
Snow Depth 0.00 in    
Sea Level Pressure  
Sea Level Pressure 30.11 in    
Wind  
Wind Speed 0 mph (North)    
Max Wind Speed 7 mph    
Max Gust Speed 12 mph    
Visibility 10 miles    
Events      
T = Trace of Precipitation, MM = Missing Value Source: NWS Daily Summary

Daily Weather History Graph

Daily Weather History Graph

Search for Another Location

Airport:

Trip Planner

Search our weather history database for the weather conditions in past years. The results will help you decide how hot, cold, wet, or windy it might be!

Date:

Astronomy

Jun. 19, 2012 Rise Set
Actual Time 6:11 AM EDT 8:57 PM EDT
Civil Twilight 5:40 AM EDT 9:28 PM EDT
Nautical Twilight 5:01 AM EDT 10:07 PM EDT
Astronomical Twilight 4:17 AM EDT 10:52 PM EDT
Moon 6:14 AM EDT (6/19) 9:02 PM EDT (6/19)
Length of Visible Light 15h 48m
Length of Day
14h 45m
Waxing Crescent, 0% of the Moon is Illuminated
Jun 19
Waxing Crescent
Jun 26
First Quarter
Jul 3
Full
Jul 10
Last Quarter
Jul 19
New

Hourly Weather History & Observations

Time (EDT) Temp. Heat Index Dew Point Humidity Pressure Visibility Wind Dir Wind Speed Gust Speed Precip Events Conditions
12:53 AM 72.0 °F - 61.0 °F 68% 30.05 in 10.0 mi Calm Calm - N/A   Clear
1:53 AM 71.1 °F - 60.1 °F 68% 30.06 in 10.0 mi Calm Calm - N/A   Clear
2:53 AM 71.1 °F - 59.0 °F 66% 30.06 in 10.0 mi Calm Calm - N/A   Clear
3:53 AM 70.0 °F - 59.0 °F 68% 30.06 in 10.0 mi Calm Calm - N/A   Clear
4:53 AM 70.0 °F - 57.0 °F 63% 30.08 in 10.0 mi Calm Calm - N/A   Clear
5:53 AM 66.9 °F - 57.9 °F 73% 30.09 in 10.0 mi Calm Calm - N/A   Scattered Clouds
6:53 AM 66.9 °F - 59.0 °F 76% 30.11 in 10.0 mi Calm Calm - N/A   Partly Cloudy
7:53 AM 70.0 °F - 59.0 °F 68% 30.12 in 10.0 mi Calm Calm - N/A   Clear
8:53 AM 73.0 °F - 60.1 °F 64% 30.14 in 10.0 mi Calm Calm - N/A   Clear
9:53 AM 75.0 °F - 62.1 °F 64% 30.14 in 10.0 mi Calm Calm - N/A   Clear
10:53 AM 80.1 °F 81.5 °F 63.0 °F 56% 30.16 in 10.0 mi Calm Calm - N/A   Clear
11:53 AM 82.0 °F 83.0 °F 62.1 °F 51% 30.16 in 10.0 mi Variable 4.6 mph - N/A   Clear
12:53 PM 82.9 °F 84.6 °F 64.9 °F 54% 30.16 in 10.0 mi Calm Calm - N/A   Scattered Clouds
1:53 PM 84.9 °F 85.4 °F 62.1 °F 46% 30.16 in 10.0 mi Variable 3.5 mph - N/A   Clear
2:53 PM 84.9 °F 84.8 °F 60.1 °F 43% 30.15 in 10.0 mi Calm Calm - N/A   Partly Cloudy
3:53 PM 84.9 °F 85.4 °F 62.1 °F 46% 30.13 in 10.0 mi Calm Calm - N/A   Clear
4:53 PM 87.1 °F 87.5 °F 62.1 °F 43% 30.12 in 10.0 mi Calm Calm - N/A   Clear
5:53 PM 86.0 °F 86.3 °F 62.1 °F 44% 30.10 in 10.0 mi Calm Calm - N/A   Clear
6:53 PM 86.0 °F 86.6 °F 62.6 °F 45% 30.14 in 10.0 mi Calm Calm - N/A   Clear
7:53 PM 84.0 °F 84.4 °F 61.0 °F 46% 30.10 in 10.0 mi Calm Calm - N/A   Clear
8:53 PM 82.9 °F 82.6 °F 57.9 °F 42% 30.09 in 10.0 mi Calm Calm - N/A   Clear
9:53 PM 81.0 °F 81.6 °F 60.1 °F 49% 30.11 in 10.0 mi Calm Calm - N/A   Clear
10:53 PM 79.0 °F - 60.1 °F 52% 30.12 in 10.0 mi Calm Calm - N/A   Clear
11:53 PM 80.1 °F 80.9 °F 60.1 °F 50% 30.13 in 10.0 mi Calm Calm - N/A   Clear